Location: Ashtead
(51.3000°N, 0.3000°W)
Time: 17:33:28
(UTC+00:00)

CZ-2C R/B - Pass Details

Date: 04 May 2025
Orbit: 781 x 868 km, 98.4° (Epoch: 12 May)

Event Time Altitude Azimuth Distance (km) Brightness Sun altitude
Exits shadow 00:28:16 29° 129° (SE) 1,442 3.6 -22.4°
Maximum altitude 00:30:42 52° 68° (ENE) 997 3.2 -22.3°
Drops below altitude 10° 00:35:46 10° 353° (N) 2,374 6.1 -22.2°
Sets 00:38:07 0° 349° (N) 3,299 7.0 -22.1°
